Location: Newark
(45.2500°N, 7.5833°E)
Time: 20:59:54
(UTC+00:00)

A-11 Canister half - Pass Details

Date: 03 February 2020
Orbit: 1524 x 1684 km, 47.3° (Epoch: 26 February)

Event Time Altitude Azimuth Distance (km) Brightness Sun altitude
Rises 15:02:25 0° 237° (WSW) 4,669 13.4 13.5°
Reaches altitude 10° 15:05:27 10° 236° (SW) 3,685 13.8 13.1°
Maximum altitude 15:14:40 73° 153° (SSE) 1,588 9.4 11.9°
Drops below altitude 10° 15:24:02 10° 71° (ENE) 3,744 10.5 10.6°
Sets 15:27:09 0° 70° (ENE) 4,747 11.0 10.1°
